Notices

What's New in latest Release from April 7th, 2021:

- Updated Glossary, including Speed of Maximum Gust, and Total Hourly Precipitation

- Updated national and regional climate services offices contacts and prices information

- Addition of station inventory lists for 1981-2010, 1971-2000, and 1961-1990 Normals.

If you haven't already, please take our survey and provide feedback about our website: https://eccc.sondage-survey.ca/f/LanguageSelection.aspx?s=442ca660-fcf1-47c0-95a9-59707d6fd709

Hourly Data Report for December 16, 2019

SAINT JOHN A
NEW BRUNSWICK
Current Station Operator: NAVCAN

45°18'58.000" N
65°53'24.000" W
108.80 m
8104901
71609
YSJ

Download Data

Hourly Data (December 2019)
Hourly Data Report for December 16, 2019
TIME
LST
Temp Definition
°C
Dew Point Definition
°C
Rel Hum Definition
%
Precip. Amount Definition
mm

Wind Dir Definition
10's deg

Wind Spd Definition
km/h
Visibility Definition
km
Stn Press Definition
kPa
Hmdx Definition


Wind Chill Definition


Weather Definition


00:00 -1.5 -10.2 52   28 30 24.1 98.66   -8 LegendNANA
01:00 -3.3 -12.5 49   28 42 24.1 98.80   -12 LegendNANA
02:00 -4.3 -12.8 52   29 28 24.1 98.96   -12 Clear
03:00 -5.0 -13.5 52   27 29 24.1 99.11   -13 LegendNANA
04:00 -5.5 -14.3 50   29 27 24.1 99.27   -13 LegendNANA
05:00 -6.6 -15.8 49   29 35 24.1 99.35   -16 Clear
06:00 -7.0 -16.1 49   27 37 24.1 99.51   -16 LegendNANA
07:00 -7.8 -18.0 44   28 35 24.1 99.69   -17 LegendNANA
08:00 -8.5 -19.2 42   29 36 24.1 99.78   -18 Mainly Clear
09:00 -8.0 -18.9 42   29 22 24.1 99.90   -16 LegendNANA
10:00 -7.2 -19.6 37   29 32 24.1 99.95   -16 LegendNANA
11:00 -6.2 -19.1 36   27 29 24.1 100.01   -14 Mainly Clear
12:00 -5.2 -18.4 35   26 24 24.1 99.98   -12 LegendNANA
13:00 -4.6 -19.3 31   27 29 24.1 99.96   -12 LegendNANA
14:00 -4.1 -20.1 28   29 36 24.1 99.95   -12 Mainly Clear
15:00 -4.6 -20.2 29   28 30 24.1 100.04   -12 LegendNANA
16:00 -4.9 -19.9 30   26 27 24.1 100.10   -12 LegendNANA
17:00 -5.2 -19.5 32   27 21 24.1 100.13   -12 Mainly Clear
18:00 -5.6 -18.8 35   28 23 24.1 100.18   -13 LegendNANA
19:00 -5.9 -18.1 38   28 22 24.1 100.26   -13 LegendNANA
20:00 -6.2 -18.9 36   28 22 24.1 100.25   -13 Clear
21:00 -6.3 -19.1 36   28 22 24.1 100.33   -14 LegendNANA
22:00 -6.9 -18.9 38   29 23 24.1 100.37   -14 LegendNANA
23:00 -7.4 -18.8 40   29 21 24.1 100.38   -15 Clear

Notes on Data Quality.

Legend

  • E = Estimated
  • M = Missing
  • NA = Not Available*
  • [empty] = Indicates an unobserved value
Date modified: